ARG1442 KSFO-KLAX

Flight info

Callsign ARG1442
Flight time 1h 0m
Altitude 31000
Route WESLA5 SUSEY EBAYE BURGL IRNMN2
Aircraft B738/M-SDE2E3FGHIRWXY/LB1

Departure

Time 2026-04-25 04:57
Airport San Francisco International Airport (KSFO)

Arrival

Time 2026-04-25 05:57
Airport Los Angeles International Airport (KLAX)
Time Latitude Longitude Altitude Speed Heading
2026-04-25 03:26 37.61482 -122.38179 14 ft 0 kts 299°
2026-04-25 04:37 37.61481 -122.38177 14 ft 2 kts 299°
2026-04-25 04:37 37.61475 -122.38162 16 ft 2 kts 298°
2026-04-25 04:37 37.61469 -122.38149 17 ft 1 kts 290°
2026-04-25 04:37 37.61465 -122.38135 19 ft 1 kts 285°
2026-04-25 04:38 37.61462 -122.38120 19 ft 1 kts 266°
2026-04-25 04:38 37.61467 -122.38103 18 ft 2 kts 223°
2026-04-25 04:38 37.61480 -122.38091 18 ft 2 kts 208°
2026-04-25 04:38 37.61487 -122.38087 15 ft 1 kts 207°
2026-04-25 04:39 37.61488 -122.38086 14 ft 0 kts 207°
2026-04-25 04:42 37.61480 -122.38091 15 ft 3 kts 207°
2026-04-25 04:42 37.61441 -122.38106 15 ft 8 kts 182°
2026-04-25 04:43 37.61411 -122.38091 14 ft 4 kts 137°
2026-04-25 04:43 37.61406 -122.38053 14 ft 5 kts 70°
2026-04-25 04:43 37.61414 -122.38041 14 ft 0 kts 40°
2026-04-25 04:46 37.61416 -122.38039 14 ft 3 kts 39°
2026-04-25 04:46 37.61469 -122.37999 16 ft 10 kts 29°
2026-04-25 04:46 37.61533 -122.37955 14 ft 10 kts 29°
2026-04-25 04:47 37.61545 -122.37946 15 ft 0 kts 28°
2026-04-25 04:47 37.61561 -122.37936 15 ft 6 kts 25°
2026-04-25 04:48 37.61615 -122.37905 17 ft 11 kts 24°
2026-04-25 04:48 37.61669 -122.37817 17 ft 16 kts 92°
2026-04-25 04:48 37.61653 -122.37642 17 ft 23 kts 96°
2026-04-25 04:48 37.61629 -122.37423 20 ft 27 kts 97°
2026-04-25 04:49 37.61597 -122.37268 23 ft 3 kts 84°
2026-04-25 04:49 37.61594 -122.37218 22 ft 7 kts 108°
2026-04-25 04:49 37.61566 -122.37144 21 ft 12 kts 116°
2026-04-25 04:49 37.61542 -122.37086 21 ft 3 kts 119°
2026-04-25 04:50 37.61527 -122.37053 23 ft 5 kts 120°
2026-04-25 04:50 37.61512 -122.37018 22 ft 4 kts 119°
2026-04-25 04:50 37.61497 -122.36984 23 ft 4 kts 117°
2026-04-25 04:50 37.61488 -122.36956 22 ft 0 kts 105°
2026-04-25 04:53 37.61488 -122.36955 22 ft 1 kts 105°
2026-04-25 04:53 37.61461 -122.36917 24 ft 11 kts 137°
2026-04-25 04:54 37.61379 -122.36797 19 ft 24 kts 127°
2026-04-25 04:54 37.61287 -122.36587 18 ft 30 kts 118°
2026-04-25 04:54 37.61186 -122.36347 20 ft 31 kts 117°
2026-04-25 04:54 37.61088 -122.36108 21 ft 30 kts 118°
2026-04-25 04:55 37.61057 -122.35983 21 ft 0 kts 82°
2026-04-25 04:55 37.61058 -122.35973 21 ft 3 kts 82°
2026-04-25 04:55 37.61086 -122.35917 21 ft 11 kts 38°
2026-04-25 04:55 37.61178 -122.35892 21 ft 16 kts 341°
2026-04-25 04:56 37.61246 -122.36027 17 ft 26 kts 297°
2026-04-25 04:56 37.61393 -122.36368 14 ft 69 kts 298°
2026-04-25 04:56 37.61738 -122.37189 21 ft 142 kts 297°
2026-04-25 04:56 37.62271 -122.38420 504 ft 166 kts 298°
2026-04-25 04:57 37.62809 -122.39687 1551 ft 161 kts 297°
2026-04-25 04:57 37.63361 -122.40985 2212 ft 182 kts 297°
2026-04-25 04:57 37.64022 -122.42516 2485 ft 210 kts 298°
2026-04-25 04:57 37.64763 -122.44214 2792 ft 228 kts 298°
2026-04-25 04:58 37.65548 -122.46004 3286 ft 238 kts 298°
2026-04-25 04:58 37.66367 -122.47861 3878 ft 243 kts 298°
2026-04-25 04:58 37.66884 -122.49922 4226 ft 261 kts 270°
2026-04-25 04:58 37.66432 -122.52180 4817 ft 272 kts 239°
2026-04-25 04:59 37.65119 -122.53880 5701 ft 273 kts 210°
2026-04-25 04:59 37.63307 -122.54575 6513 ft 277 kts 179°
2026-04-25 04:59 37.61424 -122.54114 7302 ft 279 kts 159°
2026-04-25 04:59 37.59608 -122.53170 8114 ft 282 kts 155°
2026-04-25 05:00 37.57820 -122.52153 8915 ft 286 kts 155°
2026-04-25 05:00 37.55985 -122.51132 9726 ft 289 kts 155°
2026-04-25 05:00 37.54133 -122.50140 10401 ft 297 kts 156°
2026-04-25 05:00 37.52131 -122.49090 10604 ft 321 kts 156°
2026-04-25 05:01 37.50027 -122.47989 10913 ft 339 kts 154°
2026-04-25 05:01 37.48058 -122.46323 11544 ft 342 kts 134°
2026-04-25 05:01 37.46410 -122.44133 12349 ft 343 kts 131°
2026-04-25 05:01 37.44796 -122.41911 13040 ft 348 kts 131°
2026-04-25 05:02 37.43154 -122.39637 13756 ft 352 kts 131°
2026-04-25 05:02 37.41495 -122.37343 14414 ft 356 kts 132°
2026-04-25 05:02 37.39851 -122.35083 15052 ft 359 kts 132°
2026-04-25 05:02 37.38189 -122.32807 15696 ft 362 kts 133°
2026-04-25 05:03 37.36457 -122.30444 16330 ft 366 kts 133°
2026-04-25 05:03 37.34714 -122.28074 16957 ft 371 kts 133°
2026-04-25 05:03 37.32980 -122.25719 17573 ft 374 kts 133°
2026-04-25 05:03 37.31201 -122.23309 18207 ft 378 kts 134°
2026-04-25 05:04 37.29400 -122.20870 18745 ft 382 kts 134°
2026-04-25 05:04 37.27582 -122.18412 19232 ft 387 kts 134°
2026-04-25 05:04 37.25741 -122.15925 19747 ft 391 kts 134°
2026-04-25 05:04 37.23867 -122.13394 20252 ft 395 kts 134°
2026-04-25 05:05 37.21994 -122.10867 20749 ft 400 kts 135°
2026-04-25 05:05 37.20073 -122.08277 21241 ft 404 kts 135°
2026-04-25 05:05 37.18161 -122.05702 21712 ft 408 kts 135°
2026-04-25 05:05 37.16211 -122.03077 22200 ft 412 kts 135°
2026-04-25 05:06 37.14255 -122.00446 22659 ft 417 kts 135°
2026-04-25 05:06 37.12264 -121.97770 23115 ft 421 kts 135°
2026-04-25 05:06 37.10253 -121.95070 23558 ft 425 kts 136°
2026-04-25 05:06 37.08226 -121.92350 23943 ft 429 kts 136°
2026-04-25 05:07 37.06178 -121.89606 24348 ft 432 kts 136°
2026-04-25 05:07 37.04114 -121.86840 24741 ft 435 kts 136°
2026-04-25 05:07 37.02041 -121.84065 25113 ft 438 kts 136°
2026-04-25 05:07 36.99951 -121.81269 25487 ft 441 kts 136°
2026-04-25 05:08 36.97858 -121.78473 25848 ft 444 kts 136°
2026-04-25 05:08 36.95733 -121.75637 26200 ft 447 kts 136°
2026-04-25 05:08 36.93631 -121.72834 26527 ft 450 kts 136°
2026-04-25 05:08 36.91449 -121.69927 26889 ft 453 kts 136°
2026-04-25 05:09 36.89313 -121.67083 27221 ft 455 kts 136°
2026-04-25 05:09 36.87139 -121.64191 27565 ft 458 kts 137°
2026-04-25 05:09 36.84948 -121.61279 27899 ft 461 kts 137°
2026-04-25 05:09 36.82751 -121.58360 28306 ft 462 kts 137°
2026-04-25 05:10 36.80550 -121.55439 28802 ft 460 kts 137°
2026-04-25 05:10 36.78361 -121.52535 29320 ft 458 kts 137°
2026-04-25 05:10 36.76275 -121.49771 29729 ft 459 kts 137°
2026-04-25 05:10 36.74455 -121.47363 30060 ft 459 kts 137°
2026-04-25 05:11 36.72407 -121.44655 30410 ft 458 kts 137°
2026-04-25 05:11 36.70223 -121.41769 30841 ft 456 kts 137°
2026-04-25 05:11 36.68033 -121.38880 30998 ft 460 kts 138°
2026-04-25 05:12 36.61431 -121.30181 31001 ft 457 kts 137°
2026-04-25 05:12 36.57109 -121.24495 30993 ft 455 kts 138°
2026-04-25 05:13 36.53046 -121.19165 30987 ft 455 kts 138°
2026-04-25 05:13 36.48744 -121.13528 30984 ft 456 kts 138°
2026-04-25 05:14 36.44373 -121.07808 30976 ft 457 kts 138°
2026-04-25 05:15 36.37983 -120.98939 30965 ft 460 kts 134°
2026-04-25 05:15 36.33846 -120.92885 30959 ft 460 kts 134°
2026-04-25 05:16 36.29678 -120.86850 30955 ft 460 kts 135°
2026-04-25 05:16 36.25493 -120.80850 30949 ft 460 kts 135°
2026-04-25 05:17 36.21292 -120.74850 30947 ft 460 kts 135°
2026-04-25 05:17 36.17127 -120.68910 30943 ft 459 kts 135°
2026-04-25 05:18 36.12945 -120.62955 30933 ft 458 kts 135°
2026-04-25 05:18 36.08754 -120.56998 30933 ft 458 kts 135°
2026-04-25 05:19 36.04571 -120.51062 30944 ft 457 kts 135°
2026-04-25 05:19 36.00418 -120.45179 30938 ft 458 kts 135°
2026-04-25 05:20 35.96220 -120.39243 30952 ft 458 kts 135°
2026-04-25 05:20 35.92013 -120.33302 30947 ft 460 kts 136°
2026-04-25 05:21 35.87771 -120.27411 30936 ft 459 kts 140°
2026-04-25 05:21 35.82740 -120.22761 30950 ft 448 kts 155°
2026-04-25 05:22 35.77371 -120.18838 30934 ft 448 kts 155°
2026-04-25 05:22 35.72032 -120.14869 30940 ft 449 kts 154°
2026-04-25 05:23 35.66691 -120.10840 30933 ft 450 kts 154°
2026-04-25 05:23 35.61354 -120.06815 30936 ft 450 kts 154°
2026-04-25 05:24 35.56017 -120.02793 30929 ft 449 kts 154°
2026-04-25 05:24 35.50705 -119.98793 30939 ft 449 kts 154°
2026-04-25 05:25 35.46254 -119.95446 30931 ft 450 kts 155°
2026-04-25 05:25 35.40909 -119.91432 30921 ft 450 kts 154°
2026-04-25 05:26 35.35577 -119.87434 30930 ft 450 kts 155°
2026-04-25 05:26 35.30288 -119.83472 30911 ft 442 kts 155°
2026-04-25 05:27 35.25288 -119.79314 30918 ft 433 kts 149°
2026-04-25 05:27 35.20528 -119.74744 30888 ft 436 kts 148°
2026-04-25 05:27 35.18153 -119.72462 30431 ft 439 kts 148°
2026-04-25 05:28 35.15763 -119.70186 30073 ft 435 kts 148°
2026-04-25 05:28 35.13375 -119.67936 29635 ft 432 kts 148°
2026-04-25 05:28 35.11002 -119.65715 29207 ft 428 kts 148°
2026-04-25 05:28 35.08653 -119.63525 28920 ft 420 kts 148°
2026-04-25 05:29 35.06369 -119.61397 28913 ft 407 kts 149°
2026-04-25 05:29 35.04152 -119.59333 28891 ft 394 kts 149°
2026-04-25 05:29 35.02012 -119.57343 28890 ft 381 kts 149°
2026-04-25 05:29 34.99958 -119.55435 28887 ft 368 kts 149°
2026-04-25 05:30 34.97951 -119.53575 28886 ft 355 kts 150°
2026-04-25 05:30 34.94064 -119.49982 28922 ft 354 kts 150°
2026-04-25 05:30 34.92061 -119.48138 28929 ft 365 kts 150°
2026-04-25 05:31 34.90000 -119.46256 28925 ft 375 kts 150°
2026-04-25 05:31 34.87863 -119.44344 28875 ft 386 kts 150°
2026-04-25 05:31 34.85688 -119.42405 28523 ft 390 kts 151°
2026-04-25 05:31 34.83510 -119.40463 27714 ft 401 kts 151°
2026-04-25 05:32 34.81241 -119.38436 27269 ft 402 kts 150°
2026-04-25 05:32 34.78992 -119.36415 27120 ft 392 kts 151°
2026-04-25 05:32 34.76820 -119.34468 26990 ft 383 kts 151°
2026-04-25 05:32 34.74720 -119.32592 26751 ft 378 kts 151°
2026-04-25 05:33 34.72587 -119.30721 26348 ft 377 kts 152°
2026-04-25 05:33 34.70425 -119.28845 25494 ft 391 kts 151°
2026-04-25 05:33 34.68181 -119.26897 24779 ft 401 kts 151°
2026-04-25 05:33 34.65907 -119.24910 24380 ft 399 kts 150°
2026-04-25 05:34 34.63673 -119.22960 24108 ft 394 kts 151°
2026-04-25 05:34 34.61437 -119.21028 23778 ft 391 kts 151°
2026-04-25 05:34 34.59227 -119.19126 23410 ft 390 kts 151°
2026-04-25 05:34 34.57011 -119.17220 23005 ft 387 kts 151°
2026-04-25 05:35 34.54848 -119.15336 22954 ft 376 kts 150°
2026-04-25 05:35 34.52766 -119.13487 22934 ft 365 kts 150°
2026-04-25 05:35 34.50750 -119.11690 22927 ft 353 kts 150°
2026-04-25 05:35 34.48790 -119.09949 22827 ft 345 kts 151°
2026-04-25 05:36 34.46866 -119.08248 22537 ft 342 kts 150°
2026-04-25 05:36 34.44926 -119.06539 22004 ft 347 kts 150°
2026-04-25 05:36 34.42911 -119.04781 20992 ft 367 kts 150°
2026-04-25 05:36 34.40841 -119.02992 20440 ft 373 kts 150°
2026-04-25 05:37 34.38734 -119.01165 20117 ft 370 kts 150°
2026-04-25 05:37 34.36648 -118.99356 19834 ft 365 kts 150°
2026-04-25 05:37 34.34596 -118.97578 19532 ft 362 kts 150°
2026-04-25 05:37 34.32563 -118.95778 19184 ft 361 kts 148°
2026-04-25 05:38 34.30552 -118.93944 18812 ft 361 kts 148°
2026-04-25 05:38 34.28552 -118.92116 18469 ft 359 kts 148°
2026-04-25 05:38 34.26556 -118.90300 18134 ft 357 kts 148°
2026-04-25 05:38 34.24575 -118.88496 17760 ft 355 kts 147°
2026-04-25 05:39 34.22621 -118.86699 17394 ft 353 kts 148°
2026-04-25 05:39 34.20730 -118.84959 17043 ft 351 kts 148°
2026-04-25 05:39 34.18762 -118.83152 16693 ft 349 kts 148°
2026-04-25 05:39 34.16866 -118.81411 16393 ft 346 kts 147°
2026-04-25 05:40 34.15010 -118.79568 16158 ft 342 kts 143°
2026-04-25 05:40 34.13259 -118.77651 15880 ft 339 kts 142°
2026-04-25 05:40 34.11527 -118.75718 15539 ft 338 kts 142°
2026-04-25 05:40 34.09794 -118.73797 15199 ft 337 kts 142°
2026-04-25 05:41 34.08072 -118.71910 14902 ft 335 kts 143°
2026-04-25 05:41 34.06345 -118.70033 14642 ft 333 kts 143°
2026-04-25 05:41 34.04632 -118.68171 14467 ft 327 kts 142°
2026-04-25 05:41 34.03251 -118.66017 14295 ft 329 kts 119°
2026-04-25 05:42 34.02609 -118.63379 14034 ft 330 kts 99°
2026-04-25 05:42 34.02360 -118.60630 13752 ft 329 kts 97°
2026-04-25 05:42 34.02135 -118.57894 13428 ft 327 kts 97°
2026-04-25 05:42 34.01901 -118.55205 13160 ft 324 kts 97°
2026-04-25 05:43 34.01661 -118.52536 13036 ft 315 kts 97°
2026-04-25 05:43 34.01420 -118.49955 12943 ft 303 kts 98°
2026-04-25 05:43 34.01186 -118.47469 12830 ft 293 kts 98°
2026-04-25 05:43 34.01081 -118.45060 12621 ft 287 kts 82°
2026-04-25 05:44 34.01469 -118.42733 12371 ft 281 kts 76°
2026-04-25 05:44 34.01900 -118.40437 12067 ft 279 kts 77°
2026-04-25 05:44 34.02309 -118.38150 11768 ft 277 kts 77°
2026-04-25 05:44 34.02704 -118.35883 11495 ft 274 kts 78°
2026-04-25 05:45 34.02993 -118.33619 11205 ft 272 kts 83°
2026-04-25 05:45 34.03212 -118.31365 10933 ft 270 kts 83°
2026-04-25 05:45 34.03420 -118.29153 10661 ft 267 kts 83°
2026-04-25 05:45 34.03651 -118.26944 10385 ft 265 kts 83°
2026-04-25 05:46 34.03882 -118.24747 10112 ft 263 kts 83°
2026-04-25 05:46 34.04108 -118.22564 9609 ft 268 kts 83°
2026-04-25 05:46 34.04353 -118.20224 8734 ft 289 kts 83°
2026-04-25 05:46 34.04607 -118.17764 7955 ft 303 kts 83°
2026-04-25 05:47 34.04866 -118.15263 7719 ft 295 kts 83°
2026-04-25 05:47 34.05115 -118.12858 7620 ft 283 kts 83°
2026-04-25 05:47 34.05355 -118.10516 7233 ft 282 kts 83°
2026-04-25 05:47 34.05597 -118.08159 6803 ft 284 kts 83°
2026-04-25 05:48 34.05836 -118.05790 6381 ft 284 kts 83°
2026-04-25 05:48 34.05798 -118.03426 5899 ft 284 kts 105°
2026-04-25 05:48 34.04918 -118.01335 5450 ft 280 kts 133°
2026-04-25 05:48 34.03372 -117.99977 5006 ft 274 kts 160°
2026-04-25 05:49 34.01541 -117.99637 4563 ft 269 kts 187°
2026-04-25 05:49 33.99838 -118.00350 4111 ft 253 kts 217°
2026-04-25 05:49 33.98781 -118.01872 4002 ft 226 kts 246°
2026-04-25 05:49 33.98259 -118.03530 3996 ft 200 kts 254°
2026-04-25 05:50 33.98166 -118.05162 4018 ft 194 kts 272°
2026-04-25 05:50 33.98180 -118.06803 4008 ft 197 kts 269°
2026-04-25 05:50 33.98153 -118.08439 3996 ft 196 kts 268°
2026-04-25 05:50 33.98108 -118.10082 3988 ft 195 kts 267°
2026-04-25 05:51 33.98062 -118.11660 3936 ft 181 kts 268°
2026-04-25 05:51 33.97965 -118.13105 3803 ft 167 kts 263°
2026-04-25 05:51 33.97821 -118.14524 3664 ft 187 kts 263°
2026-04-25 05:51 33.97652 -118.16167 3842 ft 194 kts 263°
2026-04-25 05:52 33.97506 -118.17713 3756 ft 176 kts 264°
2026-04-25 05:52 33.97377 -118.19097 3583 ft 160 kts 263°
2026-04-25 05:52 33.97249 -118.20396 3396 ft 154 kts 263°
2026-04-25 05:52 33.97116 -118.21687 3207 ft 156 kts 263°
2026-04-25 05:53 33.96982 -118.22990 2993 ft 157 kts 263°
2026-04-25 05:53 33.96849 -118.24273 2787 ft 156 kts 262°
2026-04-25 05:53 33.96714 -118.25575 2578 ft 157 kts 262°
2026-04-25 05:53 33.96579 -118.26880 2373 ft 157 kts 262°
2026-04-25 05:54 33.96445 -118.28179 2158 ft 155 kts 262°
2026-04-25 05:54 33.96313 -118.29459 1943 ft 153 kts 262°
2026-04-25 05:54 33.96051 -118.31995 1537 ft 152 kts 262°
2026-04-25 05:55 33.95922 -118.33248 1325 ft 149 kts 262°
2026-04-25 05:55 33.95795 -118.34484 1125 ft 149 kts 262°
2026-04-25 05:55 33.95669 -118.35718 920 ft 148 kts 262°
2026-04-25 05:55 33.95543 -118.36943 708 ft 147 kts 262°
2026-04-25 05:56 33.95419 -118.38158 503 ft 145 kts 262°
2026-04-25 05:56 33.95308 -118.39340 386 ft 142 kts 261°
2026-04-25 05:56 33.95175 -118.40550 226 ft 145 kts 262°
2026-04-25 05:56 33.95050 -118.41665 121 ft 97 kts 262°
2026-04-25 05:57 33.95012 -118.42112 125 ft 38 kts 264°
2026-04-25 05:57 33.94985 -118.42409 124 ft 24 kts 260°
2026-04-25 05:57 33.94962 -118.42603 125 ft 23 kts 262°
2026-04-25 05:57 33.94938 -118.42814 125 ft 26 kts 262°
2026-04-25 05:58 33.94923 -118.43022 125 ft 24 kts 262°
2026-04-25 05:58 33.94915 -118.43064 123 ft 3 kts 250°
2026-04-25 05:58 33.94903 -118.43087 121 ft 3 kts 231°
2026-04-25 05:58 33.94884 -118.43099 122 ft 3 kts 191°
2026-04-25 05:59 33.94850 -118.43095 122 ft 7 kts 173°
2026-04-25 05:59 33.94806 -118.43089 123 ft 0 kts 173°
2026-04-25 06:01 33.94794 -118.43087 121 ft 5 kts 173°
2026-04-25 06:01 33.94731 -118.43078 122 ft 13 kts 172°
2026-04-25 06:01 33.94656 -118.43001 125 ft 16 kts 126°
2026-04-25 06:02 33.94608 -118.42941 125 ft 5 kts 171°
2026-04-25 06:02 33.94598 -118.42953 121 ft 2 kts 263°
2026-04-25 06:02 33.94602 -118.42978 125 ft 5 kts 279°
2026-04-25 06:02 33.94603 -118.43040 125 ft 9 kts 266°
2026-04-25 06:03 33.94593 -118.43106 125 ft 4 kts 235°
2026-04-25 06:03 33.94567 -118.43114 123 ft 5 kts 183°
2026-04-25 06:03 33.94528 -118.43113 123 ft 6 kts 173°
2026-04-25 06:03 33.94510 -118.43091 124 ft 1 kts 100°
2026-04-25 06:04 33.94510 -118.43072 124 ft 3 kts 88°
2026-04-25 06:04 33.94512 -118.43044 125 ft 3 kts 83°
2026-04-25 06:04 33.94514 -118.43022 125 ft 0 kts 84°